Location: Ebenezer
(18.2167°N, 63.0667°W)
Time: 21:07:24
(UTC+00:00)

Aureole 1 Rocket - Pass Details

Date: 26 January 2020
Orbit: 378 x 1382 km, 73.9° (Epoch: 22 February)

Event Time Altitude Azimuth Distance (km) Brightness Sun altitude
Rises 23:26:30 0° 352° (N) 4,427 7.4 -19.8°
Reaches altitude 10° 23:29:33 10° 356° (N) 3,432 6.7 -20.5°
Maximum altitude 23:37:50 59° 74° (ENE) 1,444 4.5 -22.5°
Drops below altitude 10° 23:44:55 10° 152° (SSE) 2,956 6.4 -24.1°
Sets 23:47:21 0° 156° (SSE) 3,781 7.0 -24.7°
